Location: Hylvaty SDH
(49.9612°N, 16.4057°E)
Time: 11:51:38
(UTC+01:00)

A-11 Canister half - Pass Details

Date: 05 October 2020
Orbit: 1526 x 1683 km, 47.3° (Epoch: 28 October)

Event Time Altitude Azimuth Distance (km) Brightness Sun altitude
Rises 00:55:38 0° 269° (W) 4,679 - -44.8°
Reaches altitude 10° 00:58:39 10° 268° (W) 3,702 - -44.7°
Maximum altitude 01:07:58 76° 185° (S) 1,594 - -44.5°
Drops below altitude 10° 01:17:32 10° 102° (ESE) 3,796 - -44.3°
Exits shadow 01:18:16 - 101° (ESE) 4,028 11.2 -44.2°
Sets 01:20:40 0° 101° (E) 4,802 11.6 -44.2°
